Time,TemperatureF,DewpointF,PressureIn,WindDirection,WindDirectionDegrees,WindSpeedMPH,WindSpeedGustMPH,Humidity,HourlyPrecipIn,Conditions,Clouds,dailyrainin,SoftwareType,DateUTC
2013-03-26 00:04:00,37.3,23.5,29.71,WNW,286,0.0,0.0,57,0.00,,,0.01,LWC V2.00 B2112,2013-03-26 04:04:00,
2013-03-26 00:09:00,37.6,22.9,29.71,WNW,295,0.0,0.0,55,0.00,,,0.01,LWC V2.00 B2112,2013-03-26 04:09:00,
2013-03-26 00:14:00,37.9,22.3,29.71,WNW,292,0.0,0.0,53,0.00,,,0.01,LWC V2.00 B2112,2013-03-26 04:14:00,
2013-03-26 00:19:00,38.2,23.0,29.71,NE,42,0.0,0.0,54,0.00,,,0.01,LWC V2.00 B2112,2013-03-26 04:19:00,
2013-03-26 00:24:00,38.3,22.7,29.71,West,259,0.0,0.0,53,0.00,,,0.01,LWC V2.00 B2112,2013-03-26 04:24:00,
2013-03-26 00:29:00,38.3,23.1,29.72,West,263,0.0,0.0,54,0.00,,,0.01,LWC V2.00 B2112,2013-03-26 04:29:00,
2013-03-26 00:34:00,38.3,23.6,29.72,WNW,301,0.0,0.0,55,0.00,,,0.01,LWC V2.00 B2112,2013-03-26 04:34:00,
2013-03-26 00:39:00,38.3,24.0,29.72,WNW,290,0.0,0.0,56,0.00,,,0.01,LWC V2.00 B2112,2013-03-26 04:39:00,
2013-03-26 00:44:00,38.3,23.6,29.72,WNW,290,0.0,0.0,55,0.00,,,0.01,LWC V2.00 B2112,2013-03-26 04:44:00,
2013-03-26 00:49:00,38.2,23.0,29.72,NW,316,0.0,0.0,54,0.00,,,0.01,LWC V2.00 B2112,2013-03-26 04:49:00,
2013-03-26 00:54:00,38.2,23.0,29.72,West,278,0.0,0.0,54,0.00,,,0.01,LWC V2.00 B2112,2013-03-26 04:54:00,
2013-03-26 00:59:00,38.3,23.1,29.71,NW,304,0.0,0.0,54,0.00,,,0.01,LWC V2.00 B2112,2013-03-26 04:59:00,
2013-03-26 01:04:00,38.2,23.0,29.71,NE,34,0.0,0.0,54,0.00,,,0.01,LWC V2.00 B2112,2013-03-26 05:04:00,
2013-03-26 01:09:00,38.3,23.6,29.71,SW,236,0.0,0.0,55,0.00,,,0.01,LWC V2.00 B2112,2013-03-26 05:09:00,
2013-03-26 01:14:00,38.3,23.1,29.71,WSW,240,0.0,0.0,54,0.00,,,0.01,LWC V2.00 B2112,2013-03-26 05:14:00,
2013-03-26 01:19:00,38.3,23.6,29.71,SSE,168,0.0,0.0,55,0.00,,,0.01,LWC V2.00 B2112,2013-03-26 05:19:00,
2013-03-26 01:24:00,38.3,23.1,29.71,NNW,347,0.0,0.0,54,0.00,,,0.01,LWC V2.00 B2112,2013-03-26 05:24:00,
2013-03-26 01:29:00,38.3,23.6,29.72,SW,226,0.0,0.0,55,0.00,,,0.00,LWC V2.00 B2112,2013-03-26 05:29:00,
2013-03-26 01:34:00,38.3,23.6,29.72,West,266,0.0,0.0,55,0.00,,,0.00,LWC V2.00 B2112,2013-03-26 05:34:00,
2013-03-26 01:39:00,38.3,23.6,29.72,WSW,250,0.0,0.0,55,0.00,,,0.00,LWC V2.00 B2112,2013-03-26 05:39:00,
2013-03-26 01:44:00,38.3,23.6,29.72,NNW,328,0.0,0.0,55,0.00,,,0.00,LWC V2.00 B2112,2013-03-26 05:44:00,
2013-03-26 01:49:00,38.3,23.6,29.72,NNW,337,0.0,0.0,55,0.00,,,0.00,LWC V2.00 B2112,2013-03-26 05:49:00,
2013-03-26 01:54:00,38.3,23.1,29.72,West,264,0.0,0.0,54,0.00,,,0.00,LWC V2.00 B2112,2013-03-26 05:54:00,
2013-03-26 01:59:00,38.3,24.0,29.73,WSW,248,0.0,0.0,56,0.00,,,0.00,LWC V2.00 B2112,2013-03-26 05:59:00,
2013-03-26 02:04:00,38.2,24.3,29.73,WSW,239,0.0,0.0,57,0.00,,,0.00,LWC V2.00 B2112,2013-03-26 06:04:00,
2013-03-26 02:09:00,38.2,23.9,29.73,WSW,243,0.0,0.0,56,0.00,,,0.00,LWC V2.00 B2112,2013-03-26 06:09:00,
2013-03-26 02:14:00,38.0,24.1,29.72,NNE,23,0.0,0.0,57,0.00,,,0.00,LWC V2.00 B2112,2013-03-26 06:14:00,
2013-03-26 02:19:00,38.0,24.1,29.72,NW,311,0.0,0.0,57,0.00,,,0.00,LWC V2.00 B2112,2013-03-26 06:19:00,
2013-03-26 02:24:00,38.0,24.6,29.72,West,270,0.0,0.0,58,0.00,,,0.00,LWC V2.00 B2112,2013-03-26 06:24:00,
2013-03-26 02:29:00,38.0,24.1,29.72,West,271,0.0,0.0,57,0.00,,,0.00,LWC V2.00 B2112,2013-03-26 06:29:00,
2013-03-26 02:34:00,37.9,24.0,29.72,North,355,0.0,0.0,57,0.00,,,0.00,LWC V2.00 B2112,2013-03-26 06:34:00,
2013-03-26 02:39:00,37.9,24.0,29.72,West,271,0.0,0.0,57,0.00,,,0.00,LWC V2.00 B2112,2013-03-26 06:39:00,
2013-03-26 02:44:00,37.9,24.0,29.73,WNW,282,0.0,0.0,57,0.00,,,0.00,LWC V2.00 B2112,2013-03-26 06:44:00,
2013-03-26 02:49:00,37.9,24.5,29.73,West,261,0.0,0.0,58,0.00,,,0.00,LWC V2.00 B2112,2013-03-26 06:49:00,
2013-03-26 02:54:00,37.9,24.5,29.73,WNW,287,0.0,0.0,58,0.00,,,0.00,LWC V2.00 B2112,2013-03-26 06:54:00,
2013-03-26 02:59:00,37.9,24.0,29.73,NNE,21,0.0,0.0,57,0.00,,,0.00,LWC V2.00 B2112,2013-03-26 06:59:00,
2013-03-26 03:04:00,37.9,24.5,29.73,WNW,302,0.0,0.0,58,0.00,,,0.00,LWC V2.00 B2112,2013-03-26 07:04:00,
2013-03-26 03:09:00,37.9,24.5,29.73,West,276,0.0,0.0,58,0.00,,,0.00,LWC V2.00 B2112,2013-03-26 07:09:00,
2013-03-26 03:14:00,37.9,24.5,29.73,West,277,0.0,0.0,58,0.00,,,0.00,LWC V2.00 B2112,2013-03-26 07:14:00,
2013-03-26 03:19:00,37.9,24.5,29.73,WNW,293,0.0,0.0,58,0.00,,,0.00,LWC V2.00 B2112,2013-03-26 07:19:00,
2013-03-26 03:24:00,37.9,24.0,29.73,NNW,339,0.0,0.0,57,0.00,,,0.00,LWC V2.00 B2112,2013-03-26 07:24:00,
2013-03-26 03:29:00,37.9,24.5,29.73,WNW,302,0.0,0.0,58,0.00,,,0.00,LWC V2.00 B2112,2013-03-26 07:29:00,
2013-03-26 03:34:00,37.9,24.0,29.73,NW,319,0.0,0.0,57,0.00,,,0.00,LWC V2.00 B2112,2013-03-26 07:34:00,
2013-03-26 03:39:00,37.9,24.5,29.73,WNW,300,0.0,0.0,58,0.00,,,0.00,LWC V2.00 B2112,2013-03-26 07:39:00,
2013-03-26 03:44:00,37.9,24.5,29.73,WNW,289,0.0,0.0,58,0.00,,,0.00,LWC V2.00 B2112,2013-03-26 07:44:00,
2013-03-26 03:49:00,37.8,24.8,29.73,WSW,250,0.0,0.0,59,0.00,,,0.00,LWC V2.00 B2112,2013-03-26 07:49:00,
2013-03-26 03:54:00,37.8,24.4,29.73,NW,321,1.0,4.0,58,0.00,,,0.00,LWC V2.00 B2112,2013-03-26 07:54:00,
2013-03-26 03:59:00,37.8,24.4,29.73,NW,306,0.0,3.0,58,0.00,,,0.00,LWC V2.00 B2112,2013-03-26 07:59:00,
2013-03-26 04:04:00,37.6,24.6,29.73,WNW,293,0.0,0.0,59,0.00,,,0.00,LWC V2.00 B2112,2013-03-26 08:04:00,
2013-03-26 04:09:00,37.3,24.3,29.73,NW,308,0.0,0.0,59,0.00,,,0.00,LWC V2.00 B2112,2013-03-26 08:09:00,
2013-03-26 04:14:00,37.0,24.4,29.74,WNW,283,0.0,0.0,60,0.00,,,0.00,LWC V2.00 B2112,2013-03-26 08:14:00,
2013-03-26 04:19:00,36.8,24.2,29.74,NW,323,0.0,0.0,60,0.00,,,0.00,LWC V2.00 B2112,2013-03-26 08:19:00,
2013-03-26 04:24:00,36.5,24.3,29.74,SW,221,0.0,0.0,61,0.00,,,0.00,LWC V2.00 B2112,2013-03-26 08:24:00,
2013-03-26 04:34:00,36.0,24.3,29.74,WSW,257,0.0,0.0,62,0.00,,,0.00,LWC V2.00 B2112,2013-03-26 08:34:00,
2013-03-26 04:39:00,35.8,24.5,29.74,West,276,0.0,0.0,63,0.00,,,0.00,LWC V2.00 B2112,2013-03-26 08:39:00,
2013-03-26 04:44:00,35.6,24.3,29.74,West,276,0.0,0.0,63,0.00,,,0.00,LWC V2.00 B2112,2013-03-26 08:44:00,
2013-03-26 04:49:00,35.5,24.5,29.74,West,276,0.0,0.0,64,0.00,,,0.00,LWC V2.00 B2112,2013-03-26 08:49:00,
2013-03-26 04:54:00,35.2,24.6,29.74,WNW,283,0.0,0.0,65,0.00,,,0.00,LWC V2.00 B2112,2013-03-26 08:54:00,
2013-03-26 04:59:00,35.0,24.4,29.75,NW,326,0.0,0.0,65,0.00,,,0.00,LWC V2.00 B2112,2013-03-26 08:59:00,
2013-03-26 05:04:00,35.0,24.4,29.75,West,261,0.0,0.0,65,0.00,,,0.00,LWC V2.00 B2112,2013-03-26 09:04:00,
2013-03-26 05:09:00,34.9,24.7,29.75,West,262,0.0,0.0,66,0.00,,,0.00,LWC V2.00 B2112,2013-03-26 09:09:00,
2013-03-26 05:14:00,34.7,24.5,29.75,SW,232,0.0,0.0,66,0.00,,,0.00,LWC V2.00 B2112,2013-03-26 09:14:00,
2013-03-26 05:19:00,34.6,24.4,29.75,SW,232,0.0,0.0,66,0.00,,,0.00,LWC V2.00 B2112,2013-03-26 09:19:00,
2013-03-26 05:24:00,34.3,24.5,29.75,SW,232,0.0,0.0,67,0.00,,,0.00,LWC V2.00 B2112,2013-03-26 09:24:00,
2013-03-26 05:29:00,34.0,24.6,29.75,WSW,238,0.0,0.0,68,0.00,,,0.00,LWC V2.00 B2112,2013-03-26 09:29:00,
2013-03-26 05:34:00,33.7,24.6,29.75,WSW,238,0.0,0.0,69,0.00,,,0.00,LWC V2.00 B2112,2013-03-26 09:34:00,
2013-03-26 05:39:00,33.4,24.7,29.75,WSW,240,0.0,0.0,70,0.00,,,0.00,LWC V2.00 B2112,2013-03-26 09:39:00,
2013-03-26 05:44:00,33.2,24.5,29.76,WSW,240,0.0,0.0,70,0.00,,,0.00,LWC V2.00 B2112,2013-03-26 09:44:00,
2013-03-26 05:49:00,33.1,24.4,29.76,East,91,0.0,0.0,70,0.00,,,0.00,LWC V2.00 B2112,2013-03-26 09:49:00,
2013-03-26 05:54:00,32.9,24.5,29.76,East,91,0.0,0.0,71,0.00,,,0.00,LWC V2.00 B2112,2013-03-26 09:54:00,
2013-03-26 05:59:00,32.9,24.5,29.77,West,265,0.0,0.0,71,0.00,,,0.00,LWC V2.00 B2112,2013-03-26 09:59:00,
2013-03-26 06:04:00,32.8,24.4,29.77,West,265,0.0,0.0,71,0.00,,,0.00,LWC V2.00 B2112,2013-03-26 10:04:00,
2013-03-26 06:09:00,32.8,24.4,29.77,West,264,0.0,0.0,71,0.00,,,0.00,LWC V2.00 B2112,2013-03-26 10:09:00,
2013-03-26 06:14:00,32.7,24.7,29.77,WNW,289,0.0,0.0,72,0.00,,,0.00,LWC V2.00 B2112,2013-03-26 10:14:00,
2013-03-26 06:19:00,32.5,24.5,29.77,WNW,289,0.0,0.0,72,0.00,,,0.00,LWC V2.00 B2112,2013-03-26 10:19:00,
2013-03-26 06:24:00,32.4,24.7,29.77,West,281,0.0,0.0,73,0.00,,,0.00,LWC V2.00 B2112,2013-03-26 10:24:00,
2013-03-26 06:29:00,32.2,24.5,29.77,West,281,0.0,0.0,73,0.00,,,0.00,LWC V2.00 B2112,2013-03-26 10:29:00,
2013-03-26 06:34:00,32.1,24.4,29.77,WNW,283,0.0,0.0,73,0.00,,,0.00,LWC V2.00 B2112,2013-03-26 10:34:00,
2013-03-26 06:39:00,31.8,24.5,29.77,WNW,282,0.0,0.0,74,0.00,,,0.00,LWC V2.00 B2112,2013-03-26 10:39:00,
2013-03-26 06:44:00,31.6,24.3,29.77,WNW,282,0.0,0.0,74,0.00,,,0.00,LWC V2.00 B2112,2013-03-26 10:44:00,
2013-03-26 06:49:00,31.6,24.3,29.77,WNW,282,0.0,0.0,74,0.00,,,0.00,LWC V2.00 B2112,2013-03-26 10:49:00,
2013-03-26 06:54:00,31.5,24.5,29.77,WNW,282,0.0,0.0,75,0.00,,,0.00,LWC V2.00 B2112,2013-03-26 10:54:00,
2013-03-26 06:59:00,31.3,24.6,29.77,WNW,282,0.0,0.0,76,0.00,,,0.00,LWC V2.00 B2112,2013-03-26 10:59:00,
2013-03-26 07:04:00,31.3,24.6,29.77,WNW,282,0.0,0.0,76,0.00,,,0.00,LWC V2.00 B2112,2013-03-26 11:04:00,
2013-03-26 07:09:00,31.2,24.5,29.77,WNW,288,0.0,0.0,76,0.00,,,0.00,LWC V2.00 B2112,2013-03-26 11:09:00,
2013-03-26 07:14:00,31.3,24.6,29.78,WNW,288,0.0,0.0,76,0.00,,,0.00,LWC V2.00 B2112,2013-03-26 11:14:00,
2013-03-26 07:19:00,31.3,24.6,29.78,NNW,328,0.0,0.0,76,0.00,,,0.00,LWC V2.00 B2112,2013-03-26 11:19:00,
2013-03-26 07:24:00,31.5,24.8,29.78,WNW,283,0.0,0.0,76,0.00,,,0.00,LWC V2.00 B2112,2013-03-26 11:24:00,
2013-03-26 07:29:00,31.5,24.8,29.79,WNW,283,0.0,0.0,76,0.00,,,0.00,LWC V2.00 B2112,2013-03-26 11:29:00,
2013-03-26 07:34:00,31.6,24.9,29.79,West,281,0.0,0.0,76,0.00,,,0.00,LWC V2.00 B2112,2013-03-26 11:34:00,
2013-03-26 07:39:00,31.6,25.2,29.79,West,281,0.0,0.0,77,0.00,,,0.00,LWC V2.00 B2112,2013-03-26 11:39:00,
2013-03-26 07:44:00,31.8,25.4,29.79,West,281,0.0,0.0,77,0.00,,,0.00,LWC V2.00 B2112,2013-03-26 11:44:00,
2013-03-26 07:49:00,31.8,25.4,29.79,West,281,0.0,0.0,77,0.00,,,0.00,LWC V2.00 B2112,2013-03-26 11:49:00,
2013-03-26 07:54:00,32.1,25.7,29.79,West,281,0.0,0.0,77,0.00,,,0.00,LWC V2.00 B2112,2013-03-26 11:54:00,
2013-03-26 07:59:00,32.4,25.7,29.79,West,281,0.0,0.0,76,0.00,,,0.00,LWC V2.00 B2112,2013-03-26 11:59:00,
2013-03-26 08:04:00,32.8,25.8,29.79,NW,304,0.0,0.0,75,0.00,,,0.00,LWC V2.00 B2112,2013-03-26 12:04:00,
2013-03-26 08:09:00,33.1,25.7,29.79,West,277,0.0,0.0,74,0.00,,,0.00,LWC V2.00 B2112,2013-03-26 12:09:00,
2013-03-26 08:14:00,33.7,26.0,29.80,WNW,296,0.0,0.0,73,0.00,,,0.00,LWC V2.00 B2112,2013-03-26 12:14:00,
2013-03-26 08:19:00,34.1,26.0,29.80,WNW,295,0.0,0.0,72,0.00,,,0.00,LWC V2.00 B2112,2013-03-26 12:19:00,
2013-03-26 08:24:00,34.4,26.0,29.80,WNW,285,0.0,0.0,71,0.00,,,0.00,LWC V2.00 B2112,2013-03-26 12:24:00,
2013-03-26 08:29:00,34.7,25.9,29.80,SSE,160,0.0,0.0,70,0.00,,,0.00,LWC V2.00 B2112,2013-03-26 12:29:00,
2013-03-26 08:34:00,35.0,26.2,29.80,SSE,160,0.0,0.0,70,0.00,,,0.00,LWC V2.00 B2112,2013-03-26 12:34:00,
2013-03-26 08:39:00,35.3,26.2,29.80,NE,53,0.0,0.0,69,0.00,,,0.00,LWC V2.00 B2112,2013-03-26 12:39:00,
2013-03-26 08:44:00,35.8,26.3,29.81,North,359,0.0,0.0,68,0.00,,,0.00,LWC V2.00 B2112,2013-03-26 12:44:00,
2013-03-26 08:49:00,36.2,26.0,29.81,WNW,300,0.0,0.0,66,0.00,,,0.00,LWC V2.00 B2112,2013-03-26 12:49:00,
2013-03-26 08:54:00,36.8,26.5,29.81,WNW,293,0.0,3.0,66,0.00,,,0.00,LWC V2.00 B2112,2013-03-26 12:54:00,
2013-03-26 08:59:00,37.2,26.5,29.81,WNW,293,0.0,0.0,65,0.00,,,0.00,LWC V2.00 B2112,2013-03-26 12:59:00,
2013-03-26 09:04:00,37.6,26.5,29.81,North,10,0.0,0.0,64,0.00,,,0.00,LWC V2.00 B2112,2013-03-26 13:04:00,
2013-03-26 09:09:00,37.9,26.4,29.81,North,4,0.0,2.0,63,0.00,,,0.00,LWC V2.00 B2112,2013-03-26 13:09:00,
2013-03-26 09:14:00,38.2,26.0,29.82,NW,309,0.0,0.0,61,0.00,,,0.00,LWC V2.00 B2112,2013-03-26 13:14:00,
2013-03-26 09:19:00,38.6,26.7,29.82,NE,51,0.0,0.0,62,0.00,,,0.00,LWC V2.00 B2112,2013-03-26 13:19:00,
2013-03-26 09:24:00,38.9,26.6,29.82,NE,38,0.0,0.0,61,0.00,,,0.00,LWC V2.00 B2112,2013-03-26 13:24:00,
2013-03-26 09:29:00,39.3,27.0,29.82,West,259,0.0,0.0,61,0.00,,,0.00,LWC V2.00 B2112,2013-03-26 13:29:00,
2013-03-26 09:34:00,39.6,26.1,29.82,North,6,2.0,2.0,58,0.00,,,0.00,LWC V2.00 B2112,2013-03-26 13:34:00,
2013-03-26 09:39:00,39.8,25.8,29.82,NW,311,0.0,1.0,57,0.00,,,0.00,LWC V2.00 B2112,2013-03-26 13:39:00,
2013-03-26 09:44:00,39.9,25.9,29.82,North,359,0.0,0.0,57,0.00,,,0.00,LWC V2.00 B2112,2013-03-26 13:44:00,
2013-03-26 09:49:00,40.2,26.2,29.82,SW,217,1.0,4.0,57,0.00,,,0.00,LWC V2.00 B2112,2013-03-26 13:49:00,
2013-03-26 09:54:00,40.3,26.3,29.82,North,2,0.0,0.0,57,0.00,,,0.00,LWC V2.00 B2112,2013-03-26 13:54:00,
2013-03-26 09:59:00,40.9,26.4,29.82,West,262,0.0,0.0,56,0.00,,,0.00,LWC V2.00 B2112,2013-03-26 13:59:00,
2013-03-26 10:04:00,41.2,27.1,29.82,North,9,0.0,0.0,57,0.00,,,0.00,LWC V2.00 B2112,2013-03-26 14:04:00,
2013-03-26 10:09:00,41.5,26.1,29.82,NNW,347,0.0,4.0,54,0.00,,,0.00,LWC V2.00 B2112,2013-03-26 14:09:00,
2013-03-26 10:14:00,41.5,25.7,29.82,NW,307,2.0,2.0,53,0.00,,,0.00,LWC V2.00 B2112,2013-03-26 14:14:00,
2013-03-26 10:19:00,41.8,27.3,29.82,SE,125,0.0,0.0,56,0.00,,,0.00,LWC V2.00 B2112,2013-03-26 14:19:00,
2013-03-26 10:24:00,42.2,26.3,29.82,WNW,298,1.0,2.0,53,0.00,,,0.00,LWC V2.00 B2112,2013-03-26 14:24:00,
2013-03-26 10:29:00,42.3,27.3,29.82,WNW,290,0.0,2.0,55,0.00,,,0.00,LWC V2.00 B2112,2013-03-26 14:29:00,
2013-03-26 10:34:00,42.6,26.2,29.82,NNW,345,0.0,0.0,52,0.00,,,0.00,LWC V2.00 B2112,2013-03-26 14:34:00,
2013-03-26 10:39:00,42.6,25.8,29.82,WNW,302,0.0,3.0,51,0.00,,,0.00,LWC V2.00 B2112,2013-03-26 14:39:00,
2013-03-26 10:44:00,42.6,27.1,29.83,NNW,345,0.0,0.0,54,0.00,,,0.00,LWC V2.00 B2112,2013-03-26 14:44:00,
2013-03-26 10:49:00,43.3,27.3,29.83,SW,222,0.0,7.0,53,0.00,,,0.00,LWC V2.00 B2112,2013-03-26 14:49:00,
2013-03-26 10:54:00,43.8,27.3,29.83,NW,311,0.0,0.0,52,0.00,,,0.00,LWC V2.00 B2112,2013-03-26 14:54:00,
2013-03-26 10:59:00,44.5,26.5,29.83,North,359,0.0,4.0,49,0.00,,,0.00,LWC V2.00 B2112,2013-03-26 14:59:00,
2013-03-26 11:04:00,45.1,26.6,29.83,NNW,334,1.0,6.0,48,0.00,,,0.00,LWC V2.00 B2112,2013-03-26 15:04:00,
2013-03-26 11:09:00,45.5,27.0,29.83,WNW,300,0.0,1.0,48,0.00,,,0.00,LWC V2.00 B2112,2013-03-26 15:09:00,
2013-03-26 11:14:00,45.5,27.0,29.83,North,3,1.0,5.0,48,0.00,,,0.00,LWC V2.00 B2112,2013-03-26 15:14:00,
2013-03-26 11:19:00,45.5,27.5,29.83,NNE,20,0.0,0.0,49,0.00,,,0.00,LWC V2.00 B2112,2013-03-26 15:19:00,
2013-03-26 11:24:00,46.5,26.8,29.83,NE,47,0.0,0.0,46,0.00,,,0.00,LWC V2.00 B2112,2013-03-26 15:24:00,
2013-03-26 11:29:00,47.0,25.7,29.83,WNW,283,0.0,0.0,43,0.00,,,0.00,LWC V2.00 B2112,2013-03-26 15:29:00,
2013-03-26 11:34:00,47.3,27.6,29.83,NW,304,0.0,0.0,46,0.00,,,0.00,LWC V2.00 B2112,2013-03-26 15:34:00,
2013-03-26 11:39:00,47.3,27.6,29.83,NW,308,0.0,3.0,46,0.00,,,0.00,LWC V2.00 B2112,2013-03-26 15:39:00,
2013-03-26 11:44:00,47.7,29.0,29.82,SSW,212,4.0,4.0,48,0.00,,,0.00,LWC V2.00 B2112,2013-03-26 15:44:00,
2013-03-26 11:49:00,48.2,27.9,29.82,North,352,3.0,6.0,45,0.00,,,0.00,LWC V2.00 B2112,2013-03-26 15:49:00,
2013-03-26 11:54:00,47.4,26.6,29.82,SW,219,2.0,2.0,44,0.00,,,0.00,LWC V2.00 B2112,2013-03-26 15:54:00,
2013-03-26 11:59:00,46.8,27.6,29.83,NNW,334,0.0,0.0,47,0.00,,,0.00,LWC V2.00 B2112,2013-03-26 15:59:00,
2013-03-26 12:04:00,47.3,26.5,29.83,North,11,0.0,0.0,44,0.00,,,0.00,LWC V2.00 B2112,2013-03-26 16:04:00,
2013-03-26 12:09:00,47.4,28.2,29.83,NE,51,0.0,0.0,47,0.00,,,0.00,LWC V2.00 B2112,2013-03-26 16:09:00,
2013-03-26 12:14:00,47.0,26.2,29.83,North,359,0.0,3.0,44,0.00,,,0.00,LWC V2.00 B2112,2013-03-26 16:14:00,
2013-03-26 12:19:00,47.0,25.1,29.83,North,0,0.0,4.0,42,0.00,,,0.00,LWC V2.00 B2112,2013-03-26 16:19:00,
2013-03-26 12:24:00,47.6,26.2,29.83,NW,305,0.0,0.0,43,0.00,,,0.00,LWC V2.00 B2112,2013-03-26 16:24:00,
2013-03-26 12:29:00,47.7,26.9,29.83,WNW,300,6.0,10.0,44,0.00,,,0.00,LWC V2.00 B2112,2013-03-26 16:29:00,
2013-03-26 12:34:00,47.4,25.5,29.83,NW,309,0.0,1.0,42,0.00,,,0.00,LWC V2.00 B2112,2013-03-26 16:34:00,
2013-03-26 12:39:00,47.9,25.9,29.83,NW,304,0.0,0.0,42,0.00,,,0.00,LWC V2.00 B2112,2013-03-26 16:39:00,
2013-03-26 12:44:00,48.5,26.5,29.83,NNE,13,0.0,0.0,42,0.00,,,0.00,LWC V2.00 B2112,2013-03-26 16:44:00,
2013-03-26 12:49:00,48.3,27.4,29.83,North,359,0.0,0.0,44,0.00,,,0.00,LWC V2.00 B2112,2013-03-26 16:49:00,
2013-03-26 12:54:00,47.9,25.9,29.83,NNW,336,0.0,0.0,42,0.00,,,0.00,LWC V2.00 B2112,2013-03-26 16:54:00,
2013-03-26 12:59:00,47.4,26.6,29.83,West,263,0.0,3.0,44,0.00,,,0.00,LWC V2.00 B2112,2013-03-26 16:59:00,
2013-03-26 13:04:00,47.1,25.2,29.83,WNW,300,0.0,0.0,42,0.00,,,0.00,LWC V2.00 B2112,2013-03-26 17:04:00,
2013-03-26 13:09:00,48.0,26.0,29.83,North,359,0.0,2.0,42,0.00,,,0.00,LWC V2.00 B2112,2013-03-26 17:09:00,
2013-03-26 13:14:00,48.0,26.6,29.83,NNE,27,0.0,6.0,43,0.00,,,0.00,LWC V2.00 B2112,2013-03-26 17:14:00,
2013-03-26 13:19:00,47.6,26.8,29.83,NW,326,0.0,0.0,44,0.00,,,0.00,LWC V2.00 B2112,2013-03-26 17:19:00,
2013-03-26 13:24:00,47.3,26.5,29.83,NW,321,0.0,0.0,44,0.00,,,0.00,LWC V2.00 B2112,2013-03-26 17:24:00,
2013-03-26 13:29:00,47.3,26.5,29.83,North,0,0.0,3.0,44,0.00,,,0.00,LWC V2.00 B2112,2013-03-26 17:29:00,
2013-03-26 13:34:00,47.1,26.3,29.83,NW,313,0.0,0.0,44,0.00,,,0.00,LWC V2.00 B2112,2013-03-26 17:34:00,
2013-03-26 13:39:00,46.8,26.6,29.83,WNW,293,0.0,0.0,45,0.00,,,0.00,LWC V2.00 B2112,2013-03-26 17:39:00,
2013-03-26 13:44:00,46.7,25.4,29.83,NW,306,0.0,0.0,43,0.00,,,0.00,LWC V2.00 B2112,2013-03-26 17:44:00,
2013-03-26 13:49:00,46.5,25.2,29.83,NW,316,0.0,0.0,43,0.00,,,0.00,LWC V2.00 B2112,2013-03-26 17:49:00,
2013-03-26 13:54:00,46.5,24.7,29.83,SW,232,0.0,0.0,42,0.00,,,0.00,LWC V2.00 B2112,2013-03-26 17:54:00,
2013-03-26 13:59:00,46.5,26.3,29.83,North,354,0.0,0.0,45,0.00,,,0.00,LWC V2.00 B2112,2013-03-26 17:59:00,
2013-03-26 14:04:00,46.5,25.8,29.83,West,264,0.0,1.0,44,0.00,,,0.00,LWC V2.00 B2112,2013-03-26 18:04:00,
2013-03-26 14:09:00,46.2,26.0,29.83,NW,311,0.0,0.0,45,0.00,,,0.00,LWC V2.00 B2112,2013-03-26 18:09:00,
2013-03-26 14:14:00,46.1,27.5,29.83,NW,304,0.0,0.0,48,0.00,,,0.00,LWC V2.00 B2112,2013-03-26 18:14:00,
2013-03-26 14:19:00,46.0,26.4,29.83,North,356,0.0,0.0,46,0.00,,,0.00,LWC V2.00 B2112,2013-03-26 18:19:00,
2013-03-26 14:24:00,46.1,27.0,29.83,West,261,0.0,0.0,47,0.00,,,0.00,LWC V2.00 B2112,2013-03-26 18:24:00,
2013-03-26 14:29:00,46.4,26.8,29.83,NNE,13,0.0,0.0,46,0.00,,,0.00,LWC V2.00 B2112,2013-03-26 18:29:00,
2013-03-26 14:34:00,46.7,26.5,29.83,NNW,338,0.0,0.0,45,0.00,,,0.00,LWC V2.00 B2112,2013-03-26 18:34:00,
2013-03-26 14:39:00,47.1,26.3,29.83,North,1,0.0,3.0,44,0.00,,,0.00,LWC V2.00 B2112,2013-03-26 18:39:00,
2013-03-26 14:44:00,47.4,27.1,29.83,North,1,0.0,0.0,45,0.00,,,0.00,LWC V2.00 B2112,2013-03-26 18:44:00,
2013-03-26 14:54:00,47.3,28.6,29.83,North,359,2.0,2.0,48,0.00,,,0.00,LWC V2.00 B2112,2013-03-26 18:54:00,
2013-03-26 14:59:00,47.1,27.9,29.84,WNW,284,0.0,4.0,47,0.00,,,0.00,LWC V2.00 B2112,2013-03-26 18:59:00,
2013-03-26 15:04:00,47.1,27.4,29.84,NW,309,0.0,0.0,46,0.00,,,0.00,LWC V2.00 B2112,2013-03-26 19:04:00,
2013-03-26 15:09:00,47.4,27.1,29.84,North,1,0.0,0.0,45,0.00,,,0.00,LWC V2.00 B2112,2013-03-26 19:09:00,
2013-03-26 15:14:00,47.1,26.9,29.84,North,357,0.0,2.0,45,0.00,,,0.00,LWC V2.00 B2112,2013-03-26 19:14:00,
2013-03-26 15:19:00,47.0,26.8,29.84,WSW,253,0.0,0.0,45,0.00,,,0.00,LWC V2.00 B2112,2013-03-26 19:19:00,
2013-03-26 15:24:00,47.1,26.9,29.84,WNW,293,0.0,2.0,45,0.00,,,0.00,LWC V2.00 B2112,2013-03-26 19:24:00,
2013-03-26 15:29:00,47.6,27.9,29.83,SE,134,0.0,10.0,46,0.00,,,0.00,LWC V2.00 B2112,2013-03-26 19:29:00,
2013-03-26 15:34:00,47.9,28.7,29.83,West,259,0.0,0.0,47,0.00,,,0.00,LWC V2.00 B2112,2013-03-26 19:34:00,
2013-03-26 15:39:00,48.0,28.7,29.83,NW,307,0.0,0.0,47,0.00,,,0.00,LWC V2.00 B2112,2013-03-26 19:39:00,
2013-03-26 15:44:00,47.9,27.0,29.83,WNW,302,0.0,4.0,44,0.00,,,0.00,LWC V2.00 B2112,2013-03-26 19:44:00,
2013-03-26 15:49:00,47.7,26.9,29.83,West,281,0.0,0.0,44,0.00,,,0.00,LWC V2.00 B2112,2013-03-26 19:49:00,
2013-03-26 15:54:00,47.7,26.9,29.83,NW,311,0.0,4.0,44,0.00,,,0.00,LWC V2.00 B2112,2013-03-26 19:54:00,
2013-03-26 15:59:00,47.9,25.9,29.84,NW,309,0.0,5.0,42,0.00,,,0.00,LWC V2.00 B2112,2013-03-26 19:59:00,
2013-03-26 16:04:00,47.7,26.9,29.84,WNW,288,0.0,0.0,44,0.00,,,0.00,LWC V2.00 B2112,2013-03-26 20:04:00,
2013-03-26 16:09:00,47.9,25.9,29.84,WSW,244,0.0,5.0,42,0.00,,,0.00,LWC V2.00 B2112,2013-03-26 20:09:00,
2013-03-26 16:14:00,48.2,26.2,29.83,NNE,25,0.0,5.0,42,0.00,,,0.00,LWC V2.00 B2112,2013-03-26 20:14:00,
2013-03-26 16:19:00,48.5,28.1,29.83,WSW,240,0.0,0.0,45,0.00,,,0.00,LWC V2.00 B2112,2013-03-26 20:19:00,
2013-03-26 16:24:00,48.0,27.1,29.83,NNW,333,0.0,0.0,44,0.00,,,0.00,LWC V2.00 B2112,2013-03-26 20:24:00,
2013-03-26 16:29:00,47.6,27.9,29.84,NNW,328,0.0,2.0,46,0.00,,,0.00,LWC V2.00 B2112,2013-03-26 20:29:00,
2013-03-26 16:34:00,47.6,26.8,29.84,WNW,292,0.0,0.0,44,0.00,,,0.00,LWC V2.00 B2112,2013-03-26 20:34:00,
2013-03-26 16:39:00,47.7,28.5,29.84,WNW,291,0.0,0.0,47,0.00,,,0.00,LWC V2.00 B2112,2013-03-26 20:39:00,
2013-03-26 16:44:00,47.9,27.6,29.85,NNE,28,0.0,3.0,45,0.00,,,0.00,LWC V2.00 B2112,2013-03-26 20:44:00,
2013-03-26 16:49:00,48.0,26.6,29.85,North,356,0.0,0.0,43,0.00,,,0.00,LWC V2.00 B2112,2013-03-26 20:49:00,
2013-03-26 16:54:00,47.9,25.3,29.85,WNW,299,0.0,3.0,41,0.00,,,0.00,LWC V2.00 B2112,2013-03-26 20:54:00,
2013-03-26 16:59:00,47.7,26.9,29.85,NW,304,0.0,2.0,44,0.00,,,0.00,LWC V2.00 B2112,2013-03-26 20:59:00,
2013-03-26 17:04:00,47.6,26.8,29.85,SSW,203,0.0,4.0,44,0.00,,,0.00,LWC V2.00 B2112,2013-03-26 21:04:00,
2013-03-26 17:09:00,47.4,25.5,29.85,NW,310,0.0,0.0,42,0.00,,,0.00,LWC V2.00 B2112,2013-03-26 21:09:00,
2013-03-26 17:14:00,47.3,26.5,29.86,NW,326,0.0,1.0,44,0.00,,,0.00,LWC V2.00 B2112,2013-03-26 21:14:00,
2013-03-26 17:19:00,47.1,25.2,29.86,West,259,0.0,4.0,42,0.00,,,0.00,LWC V2.00 B2112,2013-03-26 21:19:00,
2013-03-26 17:24:00,47.1,25.8,29.86,NNW,342,0.0,0.0,43,0.00,,,0.00,LWC V2.00 B2112,2013-03-26 21:24:00,
2013-03-26 17:29:00,47.0,26.2,29.86,WNW,303,0.0,5.0,44,0.00,,,0.00,LWC V2.00 B2112,2013-03-26 21:29:00,
2013-03-26 17:34:00,46.7,24.8,29.86,WNW,298,0.0,0.0,42,0.00,,,0.00,LWC V2.00 B2112,2013-03-26 21:34:00,
2013-03-26 17:39:00,46.5,25.2,29.86,NW,307,0.0,0.0,43,0.00,,,0.00,LWC V2.00 B2112,2013-03-26 21:39:00,
2013-03-26 17:44:00,46.4,25.7,29.87,WNW,302,0.0,0.0,44,0.00,,,0.00,LWC V2.00 B2112,2013-03-26 21:44:00,
2013-03-26 17:54:00,46.1,25.4,29.87,NW,322,0.0,3.0,44,0.00,,,0.00,LWC V2.00 B2112,2013-03-26 21:54:00,
2013-03-26 17:59:00,46.0,25.9,29.88,NW,309,0.0,0.0,45,0.00,,,0.00,LWC V2.00 B2112,2013-03-26 21:59:00,
2013-03-26 18:04:00,46.0,25.9,29.88,NW,318,0.0,0.0,45,0.00,,,0.00,LWC V2.00 B2112,2013-03-26 22:04:00,
2013-03-26 18:09:00,45.8,26.7,29.88,WNW,301,0.0,0.0,47,0.00,,,0.00,LWC V2.00 B2112,2013-03-26 22:09:00,
2013-03-26 18:14:00,45.8,26.2,29.88,North,352,0.0,0.0,46,0.00,,,0.00,LWC V2.00 B2112,2013-03-26 22:14:00,
2013-03-26 18:19:00,45.8,26.7,29.88,North,359,0.0,0.0,47,0.00,,,0.00,LWC V2.00 B2112,2013-03-26 22:19:00,
2013-03-26 18:24:00,45.8,26.7,29.88,NW,311,0.0,1.0,47,0.00,,,0.00,LWC V2.00 B2112,2013-03-26 22:24:00,
2013-03-26 18:29:00,45.8,27.2,29.89,SW,233,0.0,0.0,48,0.00,,,0.00,LWC V2.00 B2112,2013-03-26 22:29:00,
2013-03-26 18:34:00,45.7,26.6,29.89,WNW,295,0.0,0.0,47,0.00,,,0.00,LWC V2.00 B2112,2013-03-26 22:34:00,
2013-03-26 18:39:00,45.5,27.0,29.89,West,276,0.0,0.0,48,0.00,,,0.00,LWC V2.00 B2112,2013-03-26 22:39:00,
2013-03-26 18:44:00,45.5,27.0,29.90,NW,311,0.0,0.0,48,0.00,,,0.00,LWC V2.00 B2112,2013-03-26 22:44:00,
2013-03-26 18:49:00,45.4,27.4,29.90,WNW,303,0.0,0.0,49,0.00,,,0.00,LWC V2.00 B2112,2013-03-26 22:49:00,
2013-03-26 18:54:00,45.4,26.9,29.90,NW,306,0.0,0.0,48,0.00,,,0.00,LWC V2.00 B2112,2013-03-26 22:54:00,
2013-03-26 18:59:00,45.2,27.7,29.90,SW,220,0.0,0.0,50,0.00,,,0.00,LWC V2.00 B2112,2013-03-26 22:59:00,
2013-03-26 19:09:00,44.9,27.9,29.90,SW,220,0.0,0.0,51,0.00,,,0.00,LWC V2.00 B2112,2013-03-26 23:09:00,
2013-03-26 19:14:00,44.8,28.3,29.91,WSW,257,0.0,0.0,52,0.00,,,0.00,LWC V2.00 B2112,2013-03-26 23:14:00,
2013-03-26 19:19:00,44.6,28.1,29.91,NNW,345,0.0,0.0,52,0.00,,,0.00,LWC V2.00 B2112,2013-03-26 23:19:00,
2013-03-26 19:24:00,44.6,26.6,29.91,NW,307,0.0,0.0,49,0.00,,,0.00,LWC V2.00 B2112,2013-03-26 23:24:00,
2013-03-26 19:29:00,44.8,27.8,29.91,NW,305,0.0,0.0,51,0.00,,,0.00,LWC V2.00 B2112,2013-03-26 23:29:00,
2013-03-26 19:34:00,44.6,27.6,29.91,NW,305,0.0,0.0,51,0.00,,,0.00,LWC V2.00 B2112,2013-03-26 23:34:00,
2013-03-26 19:39:00,44.5,28.0,29.91,NW,305,0.0,0.0,52,0.00,,,0.00,LWC V2.00 B2112,2013-03-26 23:39:00,
2013-03-26 19:44:00,44.2,28.6,29.92,NW,305,0.0,0.0,54,0.00,,,0.00,LWC V2.00 B2112,2013-03-26 23:44:00,
2013-03-26 19:49:00,43.8,28.7,29.92,NW,305,0.0,0.0,55,0.00,,,0.00,LWC V2.00 B2112,2013-03-26 23:49:00,
2013-03-26 19:54:00,43.5,28.9,29.92,NW,305,0.0,0.0,56,0.00,,,0.00,LWC V2.00 B2112,2013-03-26 23:54:00,
2013-03-26 19:59:00,43.2,28.6,29.93,NW,305,0.0,0.0,56,0.00,,,0.00,LWC V2.00 B2112,2013-03-26 23:59:00,
2013-03-26 20:04:00,43.1,28.9,29.93,NW,305,0.0,0.0,57,0.00,,,0.00,LWC V2.00 B2112,2013-03-27 00:04:00,
2013-03-26 20:09:00,42.9,28.3,29.93,NW,305,0.0,0.0,56,0.00,,,0.00,LWC V2.00 B2112,2013-03-27 00:09:00,
2013-03-26 20:14:00,43.1,28.5,29.93,WNW,288,0.0,0.0,56,0.00,,,0.00,LWC V2.00 B2112,2013-03-27 00:14:00,
2013-03-26 20:19:00,43.1,28.0,29.93,WNW,286,0.0,0.0,55,0.00,,,0.00,LWC V2.00 B2112,2013-03-27 00:19:00,
2013-03-26 20:24:00,43.2,27.7,29.93,WNW,286,0.0,0.0,54,0.00,,,0.00,LWC V2.00 B2112,2013-03-27 00:24:00,
2013-03-26 20:29:00,43.1,27.1,29.94,WNW,286,0.0,0.0,53,0.00,,,0.00,LWC V2.00 B2112,2013-03-27 00:29:00,
2013-03-26 20:34:00,43.1,27.1,29.94,WNW,291,0.0,0.0,53,0.00,,,0.00,LWC V2.00 B2112,2013-03-27 00:34:00,
2013-03-26 20:39:00,42.9,26.5,29.94,WNW,300,0.0,2.0,52,0.00,,,0.00,LWC V2.00 B2112,2013-03-27 00:39:00,
2013-03-26 20:44:00,43.1,25.7,29.94,NW,304,0.0,0.0,50,0.00,,,0.00,LWC V2.00 B2112,2013-03-27 00:44:00,
2013-03-26 20:49:00,43.1,25.3,29.94,WNW,295,0.0,0.0,49,0.00,,,0.00,LWC V2.00 B2112,2013-03-27 00:49:00,
2013-03-26 20:54:00,43.1,24.8,29.94,WNW,288,0.0,2.0,48,0.00,,,0.00,LWC V2.00 B2112,2013-03-27 00:54:00,
2013-03-26 20:59:00,43.1,25.7,29.95,WSW,252,0.0,0.0,50,0.00,,,0.00,LWC V2.00 B2112,2013-03-27 00:59:00,
2013-03-26 21:04:00,42.8,25.0,29.95,WSW,252,0.0,0.0,49,0.00,,,0.00,LWC V2.00 B2112,2013-03-27 01:04:00,
2013-03-26 21:09:00,42.5,24.7,29.95,NNW,347,0.0,0.0,49,0.00,,,0.00,LWC V2.00 B2112,2013-03-27 01:09:00,
2013-03-26 21:14:00,42.1,25.3,29.96,NNW,347,0.0,0.0,51,0.00,,,0.00,LWC V2.00 B2112,2013-03-27 01:14:00,
2013-03-26 21:19:00,41.5,25.2,29.96,NNW,347,0.0,0.0,52,0.00,,,0.00,LWC V2.00 B2112,2013-03-27 01:19:00,
2013-03-26 21:24:00,41.1,25.3,29.96,NNW,347,0.0,0.0,53,0.00,,,0.00,LWC V2.00 B2112,2013-03-27 01:24:00,
2013-03-26 21:29:00,40.5,24.7,29.96,NNW,347,0.0,0.0,53,0.00,,,0.00,LWC V2.00 B2112,2013-03-27 01:29:00,
2013-03-26 21:34:00,40.2,24.9,29.96,NNW,347,0.0,0.0,54,0.00,,,0.00,LWC V2.00 B2112,2013-03-27 01:34:00,
2013-03-26 21:39:00,39.9,24.6,29.96,NNW,340,0.0,0.0,54,0.00,,,0.00,LWC V2.00 B2112,2013-03-27 01:39:00,
2013-03-26 21:44:00,39.8,24.5,29.97,NW,323,0.0,0.0,54,0.00,,,0.00,LWC V2.00 B2112,2013-03-27 01:44:00,
2013-03-26 21:49:00,39.9,25.1,29.97,West,260,0.0,0.0,55,0.00,,,0.00,LWC V2.00 B2112,2013-03-27 01:49:00,
2013-03-26 21:54:00,39.9,24.6,29.97,West,260,0.0,0.0,54,0.00,,,0.00,LWC V2.00 B2112,2013-03-27 01:54:00,
2013-03-26 21:59:00,39.9,24.6,29.98,WNW,302,0.0,0.0,54,0.00,,,0.00,LWC V2.00 B2112,2013-03-27 01:59:00,
2013-03-26 22:04:00,39.9,24.6,29.98,NW,304,0.0,0.0,54,0.00,,,0.00,LWC V2.00 B2112,2013-03-27 02:04:00,
2013-03-26 22:09:00,39.9,24.6,29.98,WNW,286,0.0,1.0,54,0.00,,,0.00,LWC V2.00 B2112,2013-03-27 02:09:00,
2013-03-26 22:14:00,39.9,25.1,29.99,WNW,288,0.0,0.0,55,0.00,,,0.00,LWC V2.00 B2112,2013-03-27 02:14:00,
2013-03-26 22:19:00,39.8,25.4,29.99,NNW,340,0.0,0.0,56,0.00,,,0.00,LWC V2.00 B2112,2013-03-27 02:19:00,
2013-03-26 22:24:00,39.5,25.1,29.99,North,355,0.0,0.0,56,0.00,,,0.00,LWC V2.00 B2112,2013-03-27 02:24:00,
2013-03-26 22:29:00,39.3,25.4,29.99,NW,326,0.0,0.0,57,0.00,,,0.00,LWC V2.00 B2112,2013-03-27 02:29:00,
2013-03-26 22:34:00,39.3,25.4,29.99,North,7,0.0,0.0,57,0.00,,,0.00,LWC V2.00 B2112,2013-03-27 02:34:00,
2013-03-26 22:39:00,39.1,25.6,29.99,NW,309,0.0,0.0,58,0.00,,,0.00,LWC V2.00 B2112,2013-03-27 02:39:00,
2013-03-26 22:44:00,38.9,25.4,29.99,NW,318,0.0,0.0,58,0.00,,,0.00,LWC V2.00 B2112,2013-03-27 02:44:00,
2013-03-26 22:49:00,38.6,25.1,29.99,NW,316,0.0,0.0,58,0.00,,,0.00,LWC V2.00 B2112,2013-03-27 02:49:00,
2013-03-26 22:54:00,38.3,25.2,29.99,NW,316,0.0,0.0,59,0.00,,,0.00,LWC V2.00 B2112,2013-03-27 02:54:00,
2013-03-26 22:59:00,38.2,25.6,29.99,WSW,258,0.0,0.0,60,0.00,,,0.00,LWC V2.00 B2112,2013-03-27 02:59:00,
2013-03-26 23:04:00,38.0,25.8,29.99,NNW,340,0.0,0.0,61,0.00,,,0.00,LWC V2.00 B2112,2013-03-27 03:04:00,
2013-03-26 23:09:00,37.9,25.7,29.99,NNW,340,0.0,0.0,61,0.00,,,0.00,LWC V2.00 B2112,2013-03-27 03:09:00,
2013-03-26 23:14:00,37.8,25.6,29.99,NNW,340,0.0,0.0,61,0.00,,,0.00,LWC V2.00 B2112,2013-03-27 03:14:00,
2013-03-26 23:19:00,37.6,25.4,29.99,NNW,340,0.0,0.0,61,0.00,,,0.00,LWC V2.00 B2112,2013-03-27 03:19:00,
2013-03-26 23:24:00,37.8,25.6,29.99,WSW,257,0.0,4.0,61,0.00,,,0.00,LWC V2.00 B2112,2013-03-27 03:24:00,
2013-03-26 23:29:00,37.8,25.6,30.00,WSW,258,0.0,0.0,61,0.00,,,0.00,LWC V2.00 B2112,2013-03-27 03:29:00,
2013-03-26 23:34:00,37.8,26.0,30.00,NW,311,0.0,0.0,62,0.00,,,0.00,LWC V2.00 B2112,2013-03-27 03:34:00,
2013-03-26 23:39:00,37.5,25.7,30.00,WNW,303,0.0,0.0,62,0.00,,,0.00,LWC V2.00 B2112,2013-03-27 03:39:00,
2013-03-26 23:44:00,37.3,25.5,30.00,NW,304,0.0,0.0,62,0.00,,,0.00,LWC V2.00 B2112,2013-03-27 03:44:00,
2013-03-26 23:49:00,37.5,25.7,30.00,WNW,303,0.0,0.0,62,0.00,,,0.00,LWC V2.00 B2112,2013-03-27 03:49:00,
2013-03-26 23:54:00,37.5,25.7,30.00,ESE,102,0.0,0.0,62,0.00,,,0.00,LWC V2.00 B2112,2013-03-27 03:54:00,
2013-03-26 23:59:00,37.3,25.9,30.00,ESE,102,0.0,0.0,63,0.00,,,0.00,LWC V2.00 B2112,2013-03-27 03:59:00,